Weather History for KGLD - October, 2011

Change the Weather History Date:

Tuesday, October 4, 2011

  Actual Average Record
Temperature  
Mean Temperature 71 °F 56 °F  
Max Temperature 86 °F 71 °F 92 °F (1963)
Min Temperature 56 °F 42 °F 24 °F (1953)
Degree Days  
Heating Degree Days 0 9  
Month to date heating degree days 6 34  
Since 1 July heating degree days 130 158  
Cooling Degree Days 6 1  
Month to date cooling degree days 8 4  
Year to date cooling degree days 1107 937  
Growing Degree Days 22 (Base 50)    
Moisture  
Dew Point 33 °F    
Average Humidity 30    
Maximum Humidity 47    
Minimum Humidity 12    
Precipitation  
Precipitation 0.00 in 0.05 in 0.78 in (1930)
Month to date precipitation 0.00 0.19  
Year to date precipitation 16.45 17.31  
Snow  
Snow 0.00 in 0.00 in - ()
Month to date snowfall 0.0 0.1  
Since 1 July snowfall T 0.5  
Since 1 September snowfall 0.0 0.5  
Snow Depth 0.00 in    
Sea Level Pressure  
Sea Level Pressure 29.93 in    
Wind  
Wind Speed 20 mph (South)    
Max Wind Speed 36 mph    
Max Gust Speed 48 mph    
Visibility 10 miles    
Events      
T = Trace of Precipitation, MM = Missing Value Source: NWS Daily Summary

Daily Weather History Graph

Daily Weather History Graph

Search for Another Location

Airport or City:

Trip Planner

Search our weather history database for the weather conditions in past years. The results will help you decide how hot, cold, wet, or windy it might be!

Date:

Astronomy

Oct. 04, 2011 Rise Set
Actual Time 6:45 AM MDT 6:24 PM MDT
Civil Twilight 6:18 AM MDT 6:51 PM MDT
Nautical Twilight 5:47 AM MDT 7:22 PM MDT
Astronomical Twilight 5:16 AM MDT 7:53 PM MDT
Moon 2:26 PM MDT (10/4) No Moon Set
Length of Visible Light 12h 32m
Length of Day
11h 39m
First Quarter, 56% of the Moon is Illuminated
Oct 4
First Quarter
Oct 11
Full
Oct 19
Last Quarter
Oct 26
New
Nov 2
First Quarter

Hourly Weather History & Observations

Time (MDT) Temp. Dew Point Humidity Pressure Visibility Wind Dir Wind Speed Gust Speed Precip Events Conditions
12:53 AM 61.0 °F 37.0 °F 41% 29.93 in 10.0 mi South 11.5 mph - N/A   Clear
1:53 AM 59.0 °F 37.0 °F 44% 29.94 in 10.0 mi South 11.5 mph - N/A   Clear
2:53 AM 57.0 °F 37.0 °F 47% 29.93 in 10.0 mi South 11.5 mph - N/A   Clear
3:53 AM 59.0 °F 37.0 °F 44% 29.93 in 10.0 mi South 11.5 mph - N/A   Clear
4:53 AM 60.8 °F 35.6 °F 39% 30.06 in 10.0 mi South 15.0 mph - N/A   Clear
5:53 AM 60.1 °F 36.0 °F 41% 29.94 in 10.0 mi South 13.8 mph - N/A   Clear
6:53 AM 57.0 °F 36.0 °F 45% 29.99 in 10.0 mi South 13.8 mph - N/A   Clear
7:53 AM 60.1 °F 37.0 °F 42% 29.99 in 10.0 mi South 13.8 mph - N/A   Clear
8:53 AM 66.9 °F 37.9 °F 34% 29.99 in 10.0 mi South 15.0 mph 21.9 mph N/A   Clear
9:53 AM 75.0 °F 39.9 °F 28% 29.99 in 10.0 mi South 19.6 mph 25.3 mph N/A   Unknown
10:53 AM 81.0 °F 37.9 °F 21% 29.95 in 10.0 mi South 19.6 mph 31.1 mph N/A   Clear
11:53 AM 84.0 °F 33.1 °F 16% 29.92 in 10.0 mi South 29.9 mph 39.1 mph N/A   Clear
12:53 PM 86.0 °F 30.0 °F 13% 29.90 in 10.0 mi South 26.5 mph 42.6 mph N/A   Clear
1:53 PM 84.9 °F 26.1 °F 12% 29.88 in 10.0 mi South 33.4 mph 46.0 mph N/A   Clear
2:53 PM 84.9 °F 26.1 °F 12% 29.87 in 10.0 mi South 29.9 mph 41.4 mph N/A   Partly Cloudy
3:53 PM 84.0 °F 26.1 °F 12% 29.85 in 10.0 mi South 25.3 mph 44.9 mph N/A   Clear
4:53 PM 81.0 °F 26.1 °F 13% 29.86 in 10.0 mi South 25.3 mph 42.6 mph N/A   Clear
5:53 PM 77.0 °F 28.9 °F 17% 29.87 in 10.0 mi South 24.2 mph 33.4 mph N/A   Clear
6:53 PM 73.0 °F 28.9 °F 20% 29.89 in 10.0 mi South 18.4 mph 28.8 mph N/A   Clear
7:53 PM 69.1 °F 30.0 °F 23% 29.91 in 10.0 mi South 16.1 mph - N/A   Clear
8:53 PM 68.0 °F 30.9 °F 25% 29.90 in 10.0 mi South 18.4 mph - N/A   Clear
9:53 PM 64.4 °F 30.2 °F 28% 30.01 in 10.0 mi South 17.3 mph - N/A   Clear
10:53 PM 64.9 °F 34.0 °F 32% 29.88 in 10.0 mi South 18.4 mph - N/A   Clear
11:53 PM 64.0 °F 34.0 °F 33% 29.87 in 10.0 mi South 18.4 mph - N/A   Clear